Regional Weather Roundup
Issued by NWS

Home | Current Version | Previous Version | Text Only | Print | Product List | Glossary Off
Versions: 1 2 3 4 5 6 7 8 9 10 11 12 13 14 15 16 17 18 19 20 21 22 23 24 25 26 27

000
ASUS45 KSLC 161710
RWRUT

UTAH REGIONAL WEATHER ROUNDUP
NATIONAL WEATHER SERVICE SALT LAKE CITY UT
1100 AM MDT WED AUG 16 2017

UTZ001>011-023>025-161800-

NORTHERN UTAH

CITY           SKY/WX    TMP DP  RH WIND       PRES   REMARKS
BRIGHAM CITY   SUNNY     73  45  36 CALM      30.10S
HILL AFB       MOSUNNY   71  38  29 E13       30.12R
LOGAN          SUNNY     70  46  42 VRB5      30.11S
OGDEN          MOSUNNY   75  38  26 CALM      30.09S
SALT LAKE CITY PTSUNNY   77  42  28 E5        30.08S
TOOELE VALLEY  MOSUNNY   77  36  22 NE6       30.09S
WENDOVER       PTSUNNY   76  33  21 CALM      30.08F
HEBER CITY     SUNNY     64  41  42 CALM      30.18S
WEST JORDAN    MOSUNNY   74  52  46 SE9       30.12S

$$

UTZ011>015-024>027-161800-

CENTRAL/NORTHEAST UTAH

CITY           SKY/WX    TMP DP  RH WIND       PRES   REMARKS
PROVO AIRPORT  SUNNY     73  47  39 E7        30.13S
MOAB/CANYONLAN SUNNY     80  39  23 CALM      30.08S
DELTA          SUNNY     73  37  27 CALM      30.11F
PRICE          SUNNY     69  43  38 CALM      30.18S
ROOSEVELT      SUNNY     64  52  63 E5        30.20S
VERNAL         SUNNY     67  51  56 VRB3      30.19S

$$

UTZ013>016-019>022-027-161800-

SOUTHERN UTAH

CITY           SKY/WX    TMP DP  RH WIND       PRES   REMARKS
BRYCE CANYON   SUNNY     69  33  26 CALM      30.29S
CEDAR CITY     SUNNY     74  39  28 CALM      30.15S
MILFORD        SUNNY     78  37  22 S9        30.11F
ST GEORGE      SUNNY     79  40  24 CALM      30.02S
HANKSVILLE     SUNNY     75  39  27 CALM      30.12S
BLANDING       SUNNY     72  32  23 S5        30.26S

$$

REGIONAL REPORTS     COLORADO/ARIZONA

CITY           SKY/WX    TMP DP  RH WIND       PRES   REMARKS
CRAIG, CO      SUNNY     65  45  48 NW8       30.22F
GRAND JUNCTION SUNNY     75  42  30 VRB7      30.12S
RIFLE, CO      SUNNY     71  42  35 VRB3      30.16F
MONTROSE, CO   SUNNY     71  40  32 VRB3      30.20R
CORTEZ, CO     SUNNY     74  32  21 SW3       30.19F
COLORADO CITY    N/A     81  37  21 SE3       30.16R
PAGE, AZ       SUNNY     79  32  18 VRB5      30.09S
GRAND CANYON   MOSUNNY   72  29  20 S6        30.26R
KINGMAN, AZ    SUNNY     85  39  19 SE22      30.02R
FLAGSTAFF, AZ  PTSUNNY   67  30  25 SW9       30.29R

$$

REGIONAL REPORTS    NEVADA/IDAHO/WYOMING

CITY           SKY/WX    TMP DP  RH WIND       PRES   REMARKS
LAS VEGAS, NV  SUNNY     87  40  19 VRB6      29.94R
ELY, NY        PTSUNNY   74  38  27 VRB6      30.19F
ELKO, NV       CLOUDY    72  35  25 W5        30.12S
POCATELLO, ID  SUNNY     72  40  31 E3        30.11S
BURLEY, ID     SUNNY     72  39  30 VRB3      30.07S
FORT BRIDGER,    N/A     65  39  37 NW3       30.29S
EVANSTON, WY   SUNNY     66  36  32 VRB3      30.26R
ROCK SPRINGS,  SUNNY     63  45  51 N6        30.24S
KEMMERER, WY     N/A     64  37  36 SW5       30.27S

$$




USA.gov is the U.S. government's official web portal to all federal, state and local government web resources and services.